Location: Great Falls Observatory Park
(38.9954°N, 77.3130°W)
Time: 19:34:25
(UTC-04:00)

Envisat - Visible Passes

Search period start: 20 October 2019 00:00
Search period end: 30 October 2019 00:00
Orbit: 764 x 766 km, 98.1° (Epoch: 20 October)

Date Brightness Start Highest point End Pass type
(mag) Time Alt. Az. Time Alt. Az. Time Alt. Az.
20 Oct 5.2 20:10:33 10° SSW 20:14:48 27° W 20:19:05 10° NW visible
21 Oct 6.5 06:43:13 10° ENE 06:45:12 12° E 06:47:10 10° ESE visible
21 Oct 3.6 19:32:52 10° S 19:37:53 61° W 19:42:55 10° NNW visible
22 Oct 3.0 18:56:11 10° SSE 19:01:09 59° ENE 19:06:09 10° N visible
22 Oct 6.0 20:37:42 10° SW 20:40:32 15° W 20:43:23 10° WNW visible
23 Oct 4.7 19:58:54 10° SSW 20:03:28 34° W 20:08:05 10° NNW visible
24 Oct 3.1 19:21:32 10° S 19:26:36 79° WSW 19:31:42 10° NNW visible
25 Oct 3.3 18:45:07 10° SE 18:49:56 46° ENE 18:54:47 10° N visible
25 Oct 5.6 20:25:35 10° SW 20:29:10 19° W 20:32:45 10° NW visible
26 Oct 6.1 06:56:15 10° NE 06:59:35 17° E 07:02:56 10° SE visible
26 Oct 4.2 19:47:21 10° S 19:52:09 43° W 19:57:00 10° NNW visible
27 Oct 2.9 19:10:17 10° SSE 19:15:21 82° ENE 19:20:27 10° N visible
27 Oct 6.3 20:54:39 10° W 20:54:56 10° W 20:55:13 10° W visible
28 Oct 3.5 18:34:07 10° SE 18:38:44 36° ENE 18:43:21 10° N visible
28 Oct 5.3 20:13:43 10° SSW 20:17:48 24° W 20:21:54 10° NW visible
29 Oct 6.3 06:45:44 10° ENE 06:48:13 13° E 06:50:40 10° ESE visible
29 Oct 3.7 19:35:53 10° S 19:40:51 56° W 19:45:51 10° NNW visible
